Change the Weather History Date:

Tuesday, January 17, 2012

  Actual Average Record
Temperature  
Mean Temperature -8 °F -  
Max Temperature 0 °F 21 °F 48 °F (2014)
Min Temperature -16 °F 9 °F -20 °F (2004)
Degree Days  
Heating Degree Days 73    
Moisture  
Dew Point -15 °F    
Average Humidity 78    
Maximum Humidity 92    
Minimum Humidity 71    
Precipitation  
Precipitation 0.00 in - - ()
Sea Level Pressure  
Sea Level Pressure 30.52 in    
Wind  
Wind Speed 1 mph (East)    
Max Wind Speed 6 mph    
Max Gust Speed -    
Visibility 10 miles    
Events      
Averages and records for this station are not official NWS values.
T = Trace of Precipitation, MM = Missing Value Source: NWS Daily Summary

Daily Weather History Graph

Daily Weather History Graph

Search for Another Location

Airport or City:

Trip Planner

Search our weather history database for the weather conditions in past years. The results will help you decide how hot, cold, wet, or windy it might be!

Date:

Astronomy

Jan. 17, 2012 Rise Set
Actual Time 9:53 AM AKST 4:25 PM AKST
Civil Twilight 8:58 AM AKST 5:21 PM AKST
Nautical Twilight 8:02 AM AKST 6:17 PM AKST
Astronomical Twilight 7:10 AM AKST 7:09 PM AKST
Moon 4:16 AM AKST (1/17) 11:29 AM AKST (1/17)
Length of Visible Light 8h 22m
Length of Day
6h 32m
Waning Crescent, 33% of the Moon is Illuminated
Jan 17
Waning Crescent
Jan 22
New
Jan 30
First Quarter
Feb 7
Full
Feb 14
Last Quarter

Hourly Weather History & Observations

Time (AKST) Temp. Windchill Dew Point Humidity Pressure Visibility Wind Dir Wind Speed Gust Speed Precip Events Conditions
12:53 AM -13.0 °F - -18.0 °F 78% 30.61 in 9.0 mi Calm Calm - N/A   Clear
1:53 AM -9.0 °F - -14.1 °F 79% 30.62 in 10.0 mi Calm Calm - N/A   Clear
3:53 AM -13.0 °F - -18.9 °F 75% 30.60 in 10.0 mi Calm Calm - N/A   Clear
4:53 AM -16.1 °F - -20.9 °F 79% 30.59 in 7.0 mi Calm Calm - N/A   Clear
5:53 AM -13.0 °F - -18.9 °F 75% 30.57 in 10.0 mi Calm Calm - N/A   Clear
6:53 AM -11.9 °F - -18.0 °F 74% 30.58 in 10.0 mi Calm Calm - N/A   Clear
7:53 AM -14.1 °F -26.3 °F -18.0 °F 82% 30.56 in 10.0 mi East 4.6 mph - N/A   Clear
8:53 AM -11.9 °F -21.5 °F -18.0 °F 74% 30.56 in 10.0 mi ESE 3.5 mph - N/A   Clear
9:53 AM -13.0 °F -22.7 °F -18.0 °F 78% 30.56 in 10.0 mi ENE 3.5 mph - N/A   Clear
10:53 AM -11.9 °F -23.8 °F -17.0 °F 78% 30.56 in 10.0 mi East 4.6 mph - N/A   Clear
11:53 AM -9.0 °F -18.2 °F -15.0 °F 75% 30.55 in 10.0 mi East 3.5 mph - N/A   Clear
12:53 PM -4.0 °F - -9.9 °F 76% 30.54 in 10.0 mi Calm Calm - N/A   Clear
1:53 PM -2.9 °F - -8.0 °F 79% 30.52 in 9.0 mi Calm Calm - N/A   Clear
2:53 PM -0.0 °F - -6.0 °F 76% 30.51 in 10.0 mi Calm Calm - N/A   Clear
3:53 PM -0.9 °F - -7.1 °F 75% 30.50 in 10.0 mi Calm Calm - N/A   Clear
4:53 PM -4.0 °F - -9.0 °F 79% 30.49 in 10.0 mi Calm Calm - N/A   Clear
5:53 PM -5.1 °F -15.8 °F -11.0 °F 76% 30.48 in 9.0 mi East 4.6 mph - N/A   Clear
6:53 PM -8.0 °F - -11.0 °F 86% 30.47 in 10.0 mi Calm Calm - N/A   Clear
7:43 PM -9.4 °F - -14.8 °F 77% 30.45 in 1.8 mi Calm Calm - N/A   Haze
7:50 PM -7.6 °F - -14.8 °F 71% 30.45 in 10.0 mi Calm Calm - N/A   Clear
7:53 PM -9.0 °F - -14.1 °F 79% 30.46 in 10.0 mi Calm Calm - N/A   Clear
8:53 PM -15.0 °F -29.3 °F -18.9 °F 82% 30.46 in 10.0 mi East 5.8 mph - N/A   Clear
9:53 PM -11.9 °F -23.8 °F -18.0 °F 74% 30.46 in 10.0 mi East 4.6 mph - N/A   Clear
10:53 PM -15.0 °F - -18.9 °F 82% 30.46 in 10.0 mi Calm Calm - N/A   Clear
11:45 PM -14.8 °F - -16.6 °F 92% 30.43 in 10.0 mi Calm Calm - N/A   Partly Cloudy
11:53 PM -11.0 °F - -16.1 °F 78% 30.45 in 10.0 mi Calm Calm - N/A   Partly Cloudy